Weather History for White Mountain, AK

Change the Weather History Date:

Tuesday, September 10, 2013

  Actual Average (PAKK) Record (PAKK)
Temperature  
Mean Temperature 46 °F -  
Max Temperature 48 °F 49 °F 62 °F (2006)
Min Temperature 43 °F 37 °F 32 °F (2012)
Degree Days  
Heating Degree Days 20    
Moisture  
Dew Point -16 °F    
Average Humidity 7    
Maximum Humidity 8    
Minimum Humidity 7    
Precipitation  
Precipitation 0.03 in - - ()
Sea Level Pressure  
Sea Level Pressure 29.56 in    
Wind  
Wind Speed 8 mph (NNW)    
Max Wind Speed 10 mph    
Max Gust Speed -    
Visibility 6 miles    
Events Rain    
Averages and records for this station are not official NWS values.
T = Trace of Precipitation, MM = Missing Value Source: NWS Daily Summary

Daily Weather History Graph

Daily Weather History Graph

Search for Another Location

Airport:

Trip Planner

Search our weather history database for the weather conditions in past years. The results will help you decide how hot, cold, wet, or windy it might be!

Date:

Astronomy

Sep. 10, 2013 Rise Set
Actual Time 8:02 AM AKDT 9:36 PM AKDT
Civil Twilight 7:11 AM AKDT 10:27 PM AKDT
Nautical Twilight 6:04 AM AKDT 11:33 PM AKDT
Astronomical Twilight 4:33 AM AKDT 1:01 AM AKDT
Moon 4:03 PM AKDT (9/10) 10:25 PM AKDT (9/10)
Length of Visible Light 15h 16m
Length of Day
13h 33m
Waxing Crescent, 30% of the Moon is Illuminated
Sep 10
Waxing Crescent
Sep 12
First Quarter
Sep 19
Full
Sep 26
Last Quarter
Oct 4
New

Hourly Weather History & Observations

Time (AKDT) Temp. Windchill Dew Point Humidity Pressure Visibility Wind Dir Wind Speed Gust Speed Precip Events Conditions
12:58 AM 48.0 °F - -13.0 °F 7% 29.62 in 10.0 mi North 9.2 mph - 0.00 in Rain Light Rain
1:58 AM 46.0 °F 41.4 °F -15.0 °F 7% 29.62 in 10.0 mi North 9.2 mph - 0.00 in Rain Light Rain
2:58 AM 45.0 °F 40.1 °F -16.1 °F 7% 29.61 in 10.0 mi North 9.2 mph - 0.00 in Rain Light Rain
3:58 AM 44.1 °F 39.5 °F -17.0 °F 7% 29.61 in 10.0 mi North 8.1 mph - 0.00 in Rain Light Rain
4:58 AM 44.1 °F 39.5 °F -17.0 °F 7% 29.60 in 10.0 mi NNW 8.1 mph - 0.00 in Rain Light Rain
5:04 AM 44.6 °F 40.2 °F -18.4 °F 7% 29.56 in 10.0 mi North 8.1 mph - 0.00 in Rain Light Rain
5:58 AM 44.1 °F 39.5 °F -18.0 °F 7% 29.59 in 10.0 mi North 8.1 mph - 0.00 in   Overcast
6:54 AM 44.6 °F 39.7 °F -18.4 °F 7% 29.55 in 10.0 mi North 9.2 mph - 0.00 in Rain Light Rain
6:58 AM 44.1 °F 39.0 °F -18.0 °F 7% 29.59 in 10.0 mi North 9.2 mph - 0.00 in Rain Light Rain
7:58 AM 43.0 °F 37.2 °F -18.9 °F 7% 29.58 in 10.0 mi North 10.4 mph - 0.00 in Rain Light Rain
8:58 AM 43.0 °F 37.2 °F -18.9 °F 7% 29.58 in 10.0 mi North 10.4 mph - 0.01 in Rain Light Rain
9:58 AM 43.0 °F 37.2 °F -18.0 °F 7% 29.58 in 10.0 mi North 10.4 mph - 0.00 in Rain Light Rain
10:58 AM 44.1 °F 40.1 °F -17.0 °F 7% 29.58 in 10.0 mi North 6.9 mph - 0.00 in Rain Light Rain
11:20 AM 44.6 °F 40.7 °F -16.6 °F 7% 29.55 in 10.0 mi North 6.9 mph - 0.00 in Rain Light Rain
11:58 AM 45.0 °F 41.2 °F -16.1 °F 7% 29.58 in 9.0 mi North 6.9 mph - 0.00 in Rain Light Rain
12:48 PM 46.4 °F 43.5 °F -13.0 °F 8% 29.54 in 10.0 mi North 5.8 mph - 0.01 in Rain Light Rain
12:58 PM 46.9 °F - -13.0 °F 8% 29.58 in 6.0 mi NNW 5.8 mph - 0.01 in Rain Light Rain
1:02 PM 46.4 °F 43.5 °F -13.0 °F 8% 29.54 in 6.0 mi NNW 5.8 mph - 0.00 in Rain Light Rain
1:09 PM 46.4 °F 42.9 °F -13.0 °F 8% 29.54 in 5.0 mi North 6.9 mph - 0.00 in Rain Light Rain
1:21 PM 46.4 °F 42.9 °F -13.0 °F 8% 29.54 in 2.0 mi North 6.9 mph - 0.00 in Rain Light Rain
1:26 PM 46.4 °F 43.5 °F -13.0 °F 8% 29.55 in 1.8 mi North 5.8 mph - 0.00 in Rain Light Rain
1:30 PM 46.4 °F 42.4 °F -13.0 °F 8% 29.55 in 1.8 mi North 8.1 mph - 0.00 in Rain Light Rain
1:46 PM 46.4 °F 42.4 °F -13.0 °F 8% 29.55 in 2.5 mi North 8.1 mph - 0.00 in Rain Light Rain
1:50 PM - - - N/A% 29.55 in 3.0 mi NNW 6.9 mph - 0.00 in Rain Light Rain
1:58 PM - - - N/A% 29.54 in 2.5 mi NNW 8.1 mph - 0.00 in Rain Light Rain
2:08 PM - - - N/A% 29.54 in 2.0 mi NNW 9.2 mph - 0.00 in Rain Light Rain
2:33 PM - - - N/A% 29.55 in 3.0 mi NNW 9.2 mph - 0.01 in Rain Light Rain
2:46 PM - - - N/A% 29.55 in 2.5 mi NNW 9.2 mph - 0.01 in   Overcast
2:52 PM - - - N/A% 29.55 in 2.0 mi NNW 9.2 mph - 0.01 in   Overcast
2:58 PM - - - N/A% 29.55 in 2.0 mi NNW 9.2 mph - 0.01 in   Overcast
3:20 PM - - - N/A% 29.54 in 3.0 mi NNW 9.2 mph - 0.00 in   Overcast
3:25 PM - - - N/A% 29.54 in 2.5 mi NNW 9.2 mph - 0.00 in   Overcast
3:33 PM - - - N/A% 29.54 in 1.8 mi NNW 9.2 mph - 0.00 in Rain Light Rain
3:40 PM - - - N/A% 29.54 in 2.0 mi NNW 8.1 mph - 0.00 in Rain Light Rain
3:50 PM - - - N/A% 29.54 in 3.0 mi NNW 9.2 mph - 0.00 in   Overcast
3:58 PM - - - N/A% 29.54 in 4.0 mi NNW 8.1 mph - 0.00 in   Haze
4:58 PM - - - N/A% 29.55 in 8.0 mi NNW 9.2 mph - 0.00 in Rain Light Rain
5:41 PM - - - N/A% 29.54 in 7.0 mi North 8.1 mph - 0.00 in Rain Light Rain
5:58 PM - - - N/A% 29.54 in 8.0 mi NNW 9.2 mph - 0.00 in Rain Light Rain
6:58 PM - - - N/A% 29.55 in 9.0 mi NNW 8.1 mph - 0.00 in Rain Light Rain
7:05 PM - - - N/A% 29.55 in 10.0 mi NNW 8.1 mph - 0.00 in Rain Light Rain
7:58 PM - - - N/A% 29.56 in 10.0 mi NW 6.9 mph - 0.00 in   Overcast
8:15 PM - - - N/A% 29.56 in 10.0 mi NW 8.1 mph - N/A   Overcast
8:34 PM - - - N/A% 29.56 in 2.0 mi NNW 5.8 mph - N/A   Overcast
8:40 PM - - - N/A% 29.56 in 1.8 mi NNW 6.9 mph - N/A   Overcast
8:54 PM - - - N/A% 29.56 in 2.0 mi NNW 6.9 mph - N/A   Overcast
8:58 PM - - - N/A% 29.56 in 2.0 mi NNW 6.9 mph - N/A   Overcast
9:03 PM - - - N/A% 29.57 in 1.8 mi NNW 6.9 mph - N/A   Overcast
9:20 PM - - - N/A% 29.57 in 1.0 mi NNW 8.1 mph - N/A   Overcast
9:28 PM - - - N/A% 29.57 in 1.5 mi NNW 8.1 mph - 0.00 in Rain Light Rain
9:34 PM - - - N/A% 29.57 in 3.0 mi NNW 8.1 mph - 0.00 in   Overcast
9:53 PM - - - N/A% 29.57 in 5.0 mi NNW 9.2 mph - 0.00 in   Haze
9:58 PM - - - N/A% 29.57 in 8.0 mi NNW 8.1 mph - 0.00 in   Overcast
10:21 PM - - - N/A% 29.58 in 10.0 mi NNW 9.2 mph - N/A   Overcast
10:58 PM - - - N/A% 29.58 in 8.0 mi NNW 6.9 mph - N/A   Overcast
11:22 PM - - - N/A% 29.59 in 10.0 mi NNW 5.8 mph - N/A   Overcast
11:58 PM - - - N/A% 29.59 in 10.0 mi NNW 3.5 mph - N/A   Overcast